Temperature
16 16 16 16 15 15 15 15 15 15 15 15 15 14 14 14 14 14 14 14 14 14 14 14 14 14 14 13 13 13 13 13 13 12 12 12 12 12 12 12 12 11 11
16 16 16 16 15 15 15 15 15 15 15 15 15 14 14 14 14 14 14 14 14 14 14 14 14 14 13 13 13 13 13 13 13 12 12 12 12 12 11 11 11 11 11
16 16 16 16 16 15 15 15 15 15 15 15 15 14 14 14 14 14 14 14 14 14 14 13 13 13 13 13 13 13 13 13 12 12 12 12 12 12 11 11 11 11 11
16 16 16 16 16 15 15 15 15 15 15 15 14 14 14 14 14 14 14 14 13 13 13 13 13 13 13 13 13 13 13 13 12 12 12 12 11 11 11 11 11 11 10
16 16 16 16 16 15 15 15 15 15 14 14 14 14 14 14 14 14 14 13 13 13 13 13 13 13 13 12 12 12 12 12 12 12 12 11 11 11 11 11 10 10 10
16 16 16 16 15 15 15 15 15 14 14 14 14 14 14 14 14 14 13 13 13 13 13 13 13 12 12 12 12 12 12 12 12 11 11 11 11 11 11 10 10 10 10
16 16 16 16 15 15 15 15 15 14 14 14 14 14 14 14 13 13 13 13 13 13 13 13 12 12 12 12 12 12 12 11 11 11 11 11 11 10 10 10 10 10 9
16 15 15 15 15 15 15 15 14 14 14 14 14 14 13 13 13 13 13 13 13 13 13 12 12 12 12 12 12 12 12 11 11 11 11 10 10 10 10 10 9 9 9
15 15 15 15 15 15 15 15 14 14 14 14 13 13 13 13 13 13 13 12 12 12 12 12 12 12 12 11 11 11 11 11 11 10 10 10 10 10 9 9 9 9 9
15 15 15 15 15 14 14 14 14 14 14 13 13 13 13 13 13 12 12 12 12 12 12 12 12 12 11 11 11 11 11 11 10 10 10 10 10 9 9 9 8 8 8
15 14 14 14 14 14 14 14 14 14 14 13 13 13 12 12 12 12 12 12 12 12 12 12 11 11 11 11 11 11 10 10 10 10 10 10 9 9 9 8 8 8 7
14 14 14 14 14 14 14 13 13 13 13 13 13 12 12 12 12 12 12 12 11 11 11 11 11 11 11 10 10 10 10 10 10 9 9 9 9 9 8 8 8 7 7
14 13 13 13 13 13 13 13 13 13 13 13 13 12 12 12 12 12 11 11 11 11 11 11 10 10 10 10 10 10 10 9 9 9 9 9 8 8 8 8 8 7 7
13 13 13 13 13 13 12 12 12 12 12 12 12 12 12 12 12 11 11 11 11 11 11 10 10 10 10 10 10 9 9 9 9 8 8 8 8 8 7 7 7 7 7
13 13 13 12 12 12 12 12 12 12 12 12 12 12 12 12 11 11 11 11 11 10 10 10 10 10 10 10 9 9 9 9 8 8 8 8 7 7 7 7 6 6 6
12 12 12 12 12 12 12 12 11 11 11 11 11 11 11 11 11 11 11 11 10 10 10 10 10 10 9 9 9 9 8 8 8 8 7 7 7 6 6 6 6 5 5
12 12 12 12 11 11 11 11 11 11 11 11 11 11 11 11 11 10 10 10 10 10 10 10 9 9 9 8 8 8 8 8 7 7 7 7 6 6 6 5 5 5 5
11 11 11 11 11 11 11 11 11 11 11 11 11 11 11 10 10 10 10 10 10 10 9 9 9 9 8 8 8 8 8 7 7 7 7 6 6 6 5 5 5 5 4
11 11 11 10 10 10 10 10 10 10 10 10 10 10 10 10 10 10 9 9 9 9 9 9 8 8 8 8 8 7 7 7 7 6 6 6 6 5 5 5 5 4 4
10 10 10 10 10 10 10 10 10 10 10 10 10 10 9 9 9 9 9 9 9 9 8 8 8 8 8 7 7 7 7 6 6 6 6 5 5 5 5 4 4 4 4
10 10 10 10 9 9 9 9 9 9 9 9 9 9 9 9 9 9 9 8 8 8 8 8 7 7 7 7 7 6 6 6 6 5 5 5 5 5 4 4 4 4 3
10 9 9 9 9 9 9 9 9 8 8 8 8 8 8 8 8 8 8 8 8 7 7 7 7 7 7 6 6 6 6 6 5 5 5 5 5 4 4 4 4 3 3
9 9 9 8 8 8 8 8 8 8 8 8 8 8 8 8 8 8 8 7 7 7 7 7 6 6 6 6 6 6 5 5 5 5 5 5 4 4 4 3 3 3 3
8 8 8 8 8 8 8 8 8 7 7 7 7 7 7 7 7 7 7 7 7 7 6 6 6 6 6 6 6 5 5 5 5 5 5 4 4 4 4 3 3 3 3
7 7 7 7 7 7 7 7 7 7 7 7 7 7 7 7 7 7 6 6 6 6 6 6 6 6 5 5 5 5 5 5 5 4 4 4 4 4 3 3 3 2 2
6 6 6 6 6 6 6 6 6 6 6 6 6 6 6 6 6 6 6 6 6 6 6 6 5 5 5 5 5 5 4 4 4 4 4 4 4 3 3 3 3 2 2
Wind_Speed
3 2 2 2 2 2 2 2 3 2 2 2 3 3 3 2 2 2 2 3 3 2 2 3 2 2 2 2 2 2 2 3 3 1 1 1 2 2 3 4 4 4 3
3 3 3 2 2 2 2 2 2 2 2 2 3 3 3 3 3 3 3 3 3 3 2 2 2 2 2 2 2 2 2 2 3 2 0 1 1 1 2 2 3 3 2
2 3 3 3 3 3 2 2 2 2 2 2 3 3 3 3 3 3 3 3 3 3 3 2 1 2 2 1 2 2 1 2 2 3 1 0 1 1 2 2 2 2 2
3 3 3 3 4 3 3 2 2 2 3 2 2 3 3 3 3 3 4 3 3 2 2 2 2 2 2 2 2 2 2 3 3 3 1 0 1 1 1 1 2 2 2
3 3 3 3 3 3 2 2 2 2 3 3 3 3 2 3 3 4 4 4 3 2 2 1 1 1 2 2 2 3 3 3 2 2 1 0 0 1 1 1 1 2 2
3 3 3 3 3 3 3 3 3 2 2 3 3 3 3 2 4 6 5 4 3 3 2 1 1 1 1 2 3 4 5 4 4 3 2 1 2 2 1 1 0 1 2
3 3 3 3 3 3 3 3 3 3 3 3 3 3 3 3 4 5 6 5 3 3 2 2 1 1 1 2 2 2 2 3 5 4 3 3 2 3 2 1 1 2 3
3 2 3 3 3 3 3 3 3 3 3 3 3 3 2 2 4 5 7 5 3 2 2 2 2 1 1 3 3 2 1 1 1 2 3 3 2 3 3 2 2 1 2
3 3 3 4 4 3 3 3 3 3 3 3 2 3 3 2 3 5 7 4 3 2 1 1 2 2 2 4 4 2 1 2 1 1 1 1 1 2 4 2 1 1 2
4 4 3 3 4 4 4 3 2 3 3 3 2 3 3 3 3 5 7 4 3 2 1 1 2 3 3 4 4 3 2 2 0 1 2 2 2 1 2 3 2 1 1
3 3 3 3 4 4 3 3 3 3 3 3 3 2 2 2 3 5 6 4 4 3 2 1 1 2 3 3 4 3 3 2 1 1 1 1 1 1 0 1 2 2 2
3 3 3 3 3 3 4 3 3 4 4 3 3 1 1 1 2 4 6 5 5 4 3 2 2 2 3 3 2 2 2 2 1 1 0 1 1 1 1 1 1 2 2
3 3 3 2 2 3 4 4 3 3 3 3 3 2 1 1 1 3 4 5 6 4 3 3 3 2 2 1 1 1 2 2 1 1 1 2 2 1 0 1 1 1 2
4 3 3 3 2 2 3 3 3 3 3 3 3 3 2 1 2 2 2 2 3 2 1 1 2 2 2 1 1 1 1 1 1 1 1 1 1 0 1 0 0 1 2
4 3 3 3 3 2 2 2 3 4 5 5 4 4 4 3 4 5 4 3 3 3 3 2 2 1 1 0 0 0 0 1 1 1 1 1 1 1 1 1 1 1 1
4 3 3 3 2 2 3 1 0 1 2 4 3 4 3 4 4 5 5 4 4 6 4 2 2 2 2 2 2 1 1 2 2 2 2 2 2 2 2 2 1 1 3
4 3 3 3 3 3 3 3 2 1 1 1 3 3 3 3 4 5 5 5 5 7 3 2 2 3 3 3 3 3 3 3 3 3 3 3 3 3 2 3 2 2 3
3 4 3 3 4 3 3 3 3 3 2 1 1 3 3 3 3 4 5 5 3 3 2 3 3 3 3 3 3 3 3 3 2 3 3 3 3 3 3 4 4 4 4
3 3 3 3 3 3 3 3 3 3 3 2 1 1 2 2 2 3 5 3 3 3 3 4 4 4 4 4 4 4 4 4 4 4 4 4 4 4 4 5 4 5 4
3 4 4 3 3 3 3 3 3 4 3 3 3 3 2 2 1 2 3 3 4 4 4 5 4 4 4 4 4 4 4 4 4 4 4 4 4 4 5 5 5 4 4
3 4 4 3 3 4 4 4 5 4 4 4 4 4 5 4 4 4 4 4 5 5 5 5 5 5 4 4 4 4 5 5 5 5 5 5 4 5 5 5 5 4 4
3 3 3 4 3 3 4 4 4 5 5 5 4 4 6 4 4 4 5 5 5 5 5 5 5 5 5 5 5 5 5 5 5 5 5 5 5 5 4 4 4 4 4
3 3 3 3 3 4 4 4 4 4 5 5 4 4 4 4 5 5 5 5 5 5 5 5 5 5 5 6 6 6 6 7 6 6 5 5 5 5 5 5 6 5 5
3 3 4 3 3 4 4 4 5 5 5 5 5 5 5 5 5 6 6 5 5 5 5 6 6 7 8 6 7 8 9 9 8 7 7 6 6 5 5 5 6 6 6
3 3 3 3 4 4 4 5 5 5 5 5 5 5 5 5 6 6 6 5 6 6 6 6 6 7 9 9 9 9 10 11 10 8 6 5 6 6 5 6 5 5 5
2 2 2 2 3 4 4 5 5 6 6 5 5 5 6 6 6 6 6 5 5 6 6 6 7 9 9 10 11 11 12 12 11 10 7 5 5 5 5 5 6 5 5
Wind_Direction
186 181 172 177 166 157 164 186 190 182 172 173 162 152 149 142 131 132 129 124 114 97 87 100 91 97 92 86 94 101 105 120 138 283 334 1 36 37 30 43 45 46 43
191 180 178 171 155 157 180 193 180 180 176 170 150 148 154 151 145 153 145 129 131 128 116 102 87 102 99 101 110 115 126 134 142 150 357 8 9 5 31 45 44 47 47
171 169 167 169 167 176 184 178 165 160 151 145 146 155 163 159 151 153 144 134 134 135 135 135 136 120 107 113 127 129 133 120 123 138 141 16 1 14 28 30 32 24 23
164 164 176 191 188 188 183 171 171 165 160 162 161 164 165 159 153 147 137 135 133 122 125 141 156 153 149 148 133 133 127 115 115 123 127 38 346 341 25 16 354 352 348
169 182 197 193 182 174 173 172 165 162 169 163 151 149 151 155 163 154 149 149 146 131 102 113 150 159 164 160 145 144 135 126 123 127 136 95 326 335 301 286 288 328 323
176 198 193 173 166 170 176 167 157 161 161 144 150 155 159 176 164 160 149 148 149 148 148 139 104 102 141 140 147 148 146 143 153 147 162 197 246 244 243 233 245 343 306
175 185 177 167 170 178 174 161 167 172 159 152 159 158 176 192 169 163 157 148 148 157 163 154 137 101 101 107 109 120 152 166 161 157 172 212 221 218 189 215 233 240 248
175 180 179 169 172 172 164 174 181 169 164 171 172 175 182 200 177 168 156 145 142 157 172 175 168 180 150 139 120 101 76 35 192 175 194 222 229 201 189 200 211 259 280
190 200 193 181 176 170 174 181 177 163 165 168 164 168 171 199 175 163 148 140 142 161 174 167 179 194 192 148 131 129 69 347 13 156 203 231 243 194 155 117 104 47 297
211 208 195 179 176 178 180 170 153 158 168 159 155 169 172 187 176 166 155 145 151 166 176 207 206 199 191 162 153 156 190 254 304 41 43 29 47 114 158 169 177 194 262
200 173 171 176 179 177 165 157 145 143 141 144 151 160 171 185 185 174 165 161 172 174 187 218 230 202 192 182 169 178 207 187 165 140 87 18 19 26 360 223 197 189 217
158 156 166 171 173 165 153 150 147 143 146 155 154 169 208 216 196 193 183 182 172 173 199 212 212 205 196 189 180 205 183 129 121 116 84 315 306 297 298 298 258 251 249
143 156 160 153 150 150 153 153 147 150 158 176 174 193 223 228 232 212 199 191 180 178 194 192 198 202 188 184 189 148 124 121 129 157 257 274 277 270 309 28 23 15 348
154 163 158 157 153 151 155 159 162 174 180 185 194 203 210 220 232 217 208 195 180 179 173 154 135 122 113 99 80 86 117 160 168 216 265 281 315 314 273 284 292 323 327
159 165 165 167 163 159 160 175 186 198 192 189 199 193 191 219 228 202 181 186 185 175 142 110 102 102 105 100 25 153 164 158 221 249 247 273 281 284 288 295 280 303 279
166 173 177 175 172 165 157 129 179 186 195 196 185 177 202 207 190 181 187 180 164 151 134 147 172 184 203 215 223 243 238 231 229 225 231 239 248 256 271 289 280 260 274
177 182 182 179 181 182 178 174 182 350 29 204 205 192 189 186 181 179 179 169 152 144 145 179 197 208 217 221 225 231 242 241 228 222 232 240 247 255 265 267 262 274 279
182 188 187 189 190 190 194 194 189 184 195 262 252 215 207 202 193 181 163 135 144 162 187 204 218 223 225 228 231 237 246 246 238 241 246 247 243 247 256 256 250 257 267
190 193 190 186 188 192 193 193 190 190 192 199 207 232 216 195 175 171 150 158 189 208 218 223 226 229 233 235 237 238 239 242 246 245 248 247 245 244 251 253 253 258 265
201 204 197 187 186 193 193 196 200 200 202 205 212 214 178 137 157 191 191 202 209 220 222 225 231 233 234 237 240 240 244 248 248 246 248 248 246 243 249 250 249 253 256
199 205 208 203 199 202 205 208 207 206 210 216 226 220 191 191 205 211 214 220 223 228 229 229 230 232 234 238 240 240 241 245 243 245 247 248 247 249 250 246 247 248 253
194 197 204 210 213 213 218 217 208 207 212 218 227 221 206 205 212 219 223 229 231 232 231 228 233 233 229 228 230 235 241 245 245 244 246 247 248 249 247 244 246 247 247
190 196 205 215 219 215 221 223 216 214 218 223 224 221 213 218 224 228 232 233 234 237 240 234 234 239 240 238 232 228 234 242 242 241 241 244 245 244 239 242 243 244 244
193 201 209 219 224 221 221 222 220 221 223 225 226 225 222 225 229 233 236 237 237 240 243 242 238 237 238 241 243 241 243 249 248 241 236 240 243 240 236 240 242 239 239
201 207 214 222 226 226 226 223 222 223 225 228 229 228 227 228 232 235 236 236 238 240 243 246 245 243 242 242 246 249 252 255 253 250 241 237 238 236 236 237 238 240 239
212 214 223 236 237 233 230 227 230 233 232 232 232 231 229 230 232 233 233 233 236 238 242 245 246 246 248 248 249 251 254 255 253 251 246 236 234 235 234 236 234 232 233
Height
1539 1540 1541 1542 1543 1544 1545 1546 1547 1548 1549 1549 1550 1550 1550 1550 1550 1551 1551 1551 1551 1552 1552 1552 1552 1552 1551 1552 1552 1551 1551 1551 1551 1551 1551 1551 1551 1550 1550 1549 1549 1548 1547
1538 1539 1540 1541 1542 1543 1544 1545 1546 1547 1548 1548 1548 1549 1549 1549 1550 1550 1550 1551 1551 1551 1551 1551 1551 1551 1551 1551 1551 1551 1551 1551 1551 1550 1551 1550 1550 1550 1549 1549 1548 1547 1546
1536 1537 1538 1539 1540 1541 1542 1544 1545 1546 1546 1547 1547 1548 1548 1549 1549 1549 1549 1550 1550 1550 1551 1551 1551 1551 1551 1551 1551 1550 1550 1550 1550 1550 1550 1550 1549 1549 1548 1548 1547 1546 1545
1534 1535 1536 1538 1539 1540 1541 1542 1543 1544 1545 1545 1546 1547 1547 1548 1548 1548 1549 1549 1549 1550 1550 1550 1551 1551 1550 1550 1550 1550 1549 1549 1549 1549 1549 1548 1548 1548 1547 1546 1545 1544 1544
1532 1533 1534 1536 1537 1538 1539 1540 1541 1542 1543 1544 1544 1545 1546 1546 1547 1547 1548 1548 1549 1549 1549 1549 1550 1550 1550 1549 1549 1549 1549 1548 1548 1548 1547 1547 1546 1546 1545 1545 1544 1543 1542
1530 1531 1532 1533 1534 1536 1537 1538 1539 1540 1541 1542 1542 1543 1544 1545 1546 1546 1547 1547 1547 1548 1548 1548 1549 1549 1549 1549 1548 1548 1548 1547 1547 1546 1546 1545 1545 1544 1544 1543 1542 1541 1539
1528 1529 1530 1531 1532 1533 1535 1536 1537 1538 1539 1540 1540 1541 1542 1543 1544 1545 1545 1546 1546 1546 1547 1547 1547 1547 1547 1547 1547 1547 1546 1546 1546 1545 1544 1544 1543 1542 1542 1541 1540 1539 1538
1526 1527 1528 1529 1530 1531 1532 1533 1534 1535 1536 1537 1538 1539 1540 1541 1542 1543 1543 1544 1544 1545 1545 1545 1546 1546 1546 1545 1545 1545 1545 1544 1544 1543 1543 1542 1542 1541 1540 1539 1538 1537 1535
1523 1524 1525 1527 1527 1529 1530 1531 1532 1533 1534 1535 1536 1537 1538 1539 1540 1541 1541 1542 1542 1542 1543 1543 1543 1543 1544 1543 1543 1543 1542 1542 1542 1541 1541 1540 1539 1538 1537 1536 1535 1533 1532
1520 1522 1523 1524 1525 1526 1527 1528 1529 1530 1531 1532 1533 1534 1535 1536 1538 1538 1539 1540 1540 1540 1541 1541 1541 1541 1541 1541 1541 1540 1540 1540 1539 1539 1538 1538 1537 1536 1535 1534 1532 1531 1529
1518 1519 1520 1521 1522 1523 1524 1526 1527 1528 1529 1529 1530 1531 1533 1534 1535 1536 1537 1537 1537 1538 1538 1538 1539 1539 1539 1539 1538 1538 1538 1537 1537 1536 1535 1535 1534 1533 1532 1531 1530 1528 1527
1516 1516 1518 1519 1520 1520 1522 1523 1524 1525 1526 1527 1528 1529 1530 1531 1532 1533 1534 1534 1535 1535 1535 1535 1536 1536 1536 1536 1535 1535 1535 1535 1534 1533 1532 1531 1530 1529 1528 1527 1526 1525 1524
1513 1514 1515 1516 1517 1518 1519 1520 1521 1522 1523 1524 1525 1526 1527 1528 1529 1530 1530 1531 1531 1532 1532 1533 1533 1533 1533 1533 1533 1532 1532 1531 1530 1530 1529 1528 1527 1526 1525 1524 1523 1522 1521
1510 1511 1512 1513 1514 1515 1516 1517 1518 1519 1520 1521 1522 1523 1524 1525 1526 1526 1527 1528 1528 1529 1529 1529 1530 1530 1529 1529 1529 1529 1528 1528 1527 1526 1525 1525 1523 1522 1521 1520 1518 1517 1516
1507 1508 1509 1510 1511 1512 1513 1514 1515 1516 1518 1518 1519 1520 1520 1521 1522 1523 1524 1524 1524 1525 1525 1526 1526 1526 1526 1525 1525 1525 1525 1524 1523 1523 1522 1521 1520 1518 1517 1516 1515 1513 1512
1504 1505 1506 1507 1508 1509 1509 1510 1511 1513 1514 1515 1516 1517 1517 1518 1519 1520 1520 1521 1521 1522 1522 1521 1521 1521 1522 1521 1521 1521 1521 1520 1519 1518 1518 1517 1515 1514 1513 1512 1511 1510 1508
1501 1501 1502 1503 1504 1505 1506 1506 1507 1509 1510 1511 1512 1513 1514 1514 1515 1516 1517 1517 1517 1518 1517 1517 1517 1517 1518 1518 1517 1517 1516 1516 1515 1514 1513 1512 1511 1510 1509 1508 1507 1505 1504
1498 1498 1499 1500 1500 1501 1502 1503 1504 1505 1506 1506 1508 1509 1510 1510 1511 1512 1512 1513 1513 1513 1513 1513 1513 1513 1513 1513 1513 1512 1512 1511 1510 1509 1509 1507 1506 1505 1504 1503 1502 1501 1499
1494 1495 1495 1496 1497 1498 1499 1499 1500 1501 1502 1503 1504 1505 1506 1506 1507 1508 1508 1508 1508 1508 1508 1508 1509 1509 1509 1508 1508 1507 1507 1506 1505 1504 1503 1503 1501 1500 1499 1498 1497 1496 1494
1490 1491 1491 1492 1493 1493 1494 1495 1495 1496 1497 1498 1499 1500 1501 1502 1502 1502 1503 1503 1503 1503 1504 1504 1504 1504 1504 1503 1503 1502 1502 1501 1500 1499 1498 1497 1496 1495 1494 1493 1492 1491 1489
1485 1486 1487 1488 1488 1489 1490 1490 1491 1491 1492 1493 1494 1495 1496 1496 1497 1497 1497 1498 1498 1498 1498 1498 1498 1498 1498 1498 1497 1497 1496 1495 1494 1494 1493 1492 1491 1489 1488 1487 1486 1485 1484
1480 1481 1482 1483 1483 1484 1485 1485 1486 1487 1487 1488 1489 1490 1491 1491 1491 1492 1492 1493 1493 1493 1493 1493 1492 1492 1492 1492 1491 1491 1490 1489 1489 1488 1487 1486 1485 1484 1483 1482 1481 1479 1478
1475 1476 1477 1477 1478 1479 1480 1480 1481 1481 1482 1483 1483 1484 1485 1485 1486 1486 1487 1487 1487 1487 1487 1487 1486 1486 1486 1485 1485 1484 1483 1483 1483 1482 1481 1480 1479 1478 1477 1476 1475 1473 1472
1470 1471 1471 1472 1473 1473 1474 1474 1475 1476 1476 1477 1478 1478 1479 1479 1480 1480 1480 1481 1481 1481 1481 1480 1480 1479 1479 1478 1478 1477 1477 1477 1476 1476 1475 1474 1473 1472 1471 1470 1469 1467 1467
1465 1466 1466 1466 1467 1467 1468 1469 1469 1470 1470 1471 1471 1472 1472 1473 1473 1474 1474 1474 1474 1474 1474 1473 1473 1472 1472 1471 1471 1470 1470 1470 1469 1469 1468 1467 1466 1465 1465 1464 1463 1462 1461
1460 1461 1461 1461 1461 1462 1462 1462 1463 1464 1464 1465 1465 1466 1466 1466 1467 1467 1467 1467 1467 1467 1467 1466 1466 1465 1465 1464 1463 1463 1463 1462 1462 1462 1461 1461 1460 1459 1458 1458 1457 1456 1456